Location: Arrien
(42.8963°N, 1.0429°E)
Time: 02:07:18
(UTC+00:00)

Cosmos 1697 Rocket - Pass Details

Date: 11 December 2025
Orbit: 831 x 843 km, 71.0° (Epoch: 12 January)

Event Time Altitude Azimuth Distance (km) Brightness Sun altitude
Rises 17:04:42 0° 194° (SSW) 3,358 6.4 -7.8°
Reaches altitude 10° 17:07:08 10° 191° (SSW) 2,429 5.6 -8.2°
Maximum altitude 17:12:38 66° 111° (ESE) 907 2.7 -9.2°
Drops below altitude 10° 17:18:11 10° 30° (NNE) 2,449 4.6 -10.1°
Enters shadow 17:19:18 - 29° (NNE) 2,870 5.0 -10.3°
